Location: Mohawk View
(42.7837°N, 73.7885°W)
Time: 16:50:40
(UTC+00:00)

Meteor 2-20 Rocket - Pass Details

Date: 17 June 2021
Orbit: 940 x 959 km, 82.5° (Epoch: 01 August)

Event Time Altitude Azimuth Distance (km) Brightness Sun altitude
Exits shadow 01:43:17 - 176° (S) 3,221 6.8 -10.3°
Reaches altitude 10° 01:44:44 10° 174° (S) 2,671 6.3 -10.5°
Maximum altitude 01:50:46 65° 94° (E) 1,038 4.5 -11.3°
Drops below altitude 10° 01:56:49 10° 14° (NNE) 2,676 7.3 -12.0°
Sets 01:59:19 0° 12° (NNE) 3,623 8.1 -12.3°
